Location: Unspecified
(0.0000°N, 0.0000°E)
Time: 20:49:37
(UTC+00:00)

BEESAT - Pass Details

Date: 10 December 2017
Orbit: 701 x 709 km, 98.5° (Epoch: 15 January)

Event Time Altitude Azimuth Distance (km) Brightness Sun altitude
Rises 03:53:11 0° 192° (SSW) 3,099 ? -27.3°
Reaches altitude 10° 03:55:52 10° 207° (SSW) 2,176 ? -26.7°
Enters shadow 03:55:58 10° 208° (SSW) 2,146 ? -26.7°
